GFSNW_con_lsi_276.txt.gz
Lid_Strength_Index
5 4 4 3 3 3 5 7 11 6 5 11 12 12 11 9 12 11 13 13 13 14 15 18 19 19 18 15 16 19 18 19 22 21 21 19 19 20 22 25 26 27 28 24
5 5 4 4 3 3 8 10 9 6 7 12 12 12 11 11 12 13 13 13 12 14 15 16 18 18 15 16 17 18 18 22 24 21 21 20 21 20 21 26 26 27 28 22
5 5 5 4 3 3 7 10 13 10 9 10 12 11 12 14 10 11 11 13 13 15 17 16 17 18 16 15 16 15 16 21 21 20 20 21 22 21 21 24 28 28 24 22
5 5 5 5 4 4 7 10 13 11 14 13 11 10 12 12 15 11 11 14 13 14 17 18 18 17 17 16 15 17 19 23 23 22 22 22 21 21 21 23 24 23 17 23
4 4 5 5 5 4 8 13 12 11 13 13 12 11 11 11 14 12 13 14 13 13 16 15 18 17 17 17 17 18 19 23 21 23 22 21 22 21 20 20 21 23 21 20
3 3 3 4 4 4 9 8 9 11 14 14 13 12 12 12 11 12 11 11 12 14 13 13 15 15 15 15 17 19 20 22 24 25 23 23 22 20 20 21 22 21 23 18
1 1 1 1 1 1 5 7 9 12 16 14 14 12 11 10 10 10 12 10 12 12 11 11 13 15 16 16 17 17 20 22 25 26 25 26 17 19 18 19 19 20 20 19
-1 -1 -2 -2 -1 -1 2 3 6 10 15 14 14 14 15 10 9 10 11 11 11 9 11 14 16 19 18 21 19 18 18 20 28 26 30 21 16 21 21 21 18 18 18 16
-2 -2 -2 -2 -2 -2 1 2 2 5 11 15 13 14 13 13 11 12 13 12 9 11 12 15 18 20 20 24 24 18 19 20 24 32 28 26 17 20 19 19 20 18 17 17
-2 -2 -2 -2 -2 -2 1 1 2 4 8 11 10 13 14 12 9 11 13 13 13 11 14 17 19 20 22 22 24 23 23 27 28 33 30 24 17 18 18 21 17 18 18 17
-2 -2 -2 -2 -2 -2 -0 2 1 4 8 10 8 8 10 10 11 12 13 12 14 14 14 15 17 21 21 22 21 22 22 24 29 32 31 26 18 18 19 16 17 17 18 18
-2 -2 -2 -2 -2 -2 -2 3 -0 1 5 7 7 6 6 8 8 11 11 13 15 12 16 18 20 19 24 22 22 19 20 19 22 22 21 16 17 16 16 16 17 17 16 16
-2 -2 -2 -2 -2 -2 -1 2 1 2 5 6 8 10 7 6 6 5 11 13 11 13 12 15 17 20 18 23 22 20 19 17 19 20 15 17 16 15 15 16 16 16 15 15
-2 -2 -2 -1 -2 -2 -1 2 1 2 6 10 12 6 7 5 5 6 6 9 11 12 14 17 15 19 16 19 18 18 18 17 19 19 16 15 14 15 15 15 15 16 16 16
-2 -1 -1 -1 -1 -2 -0 1 1 1 6 9 12 9 7 6 6 6 6 7 10 12 13 14 15 16 17 20 20 22 18 17 17 16 13 14 13 13 15 16 15 15 16 16
-1 -1 -1 -1 -1 -1 1 5 1 0 1 7 14 10 10 8 7 7 8 9 9 10 14 15 17 15 14 18 22 16 16 15 14 11 13 13 14 15 15 16 16 15 17 16
-1 -1 -1 -1 -0 1 4 8 4 -0 1 6 13 11 8 8 8 8 9 9 10 9 11 11 16 16 15 15 18 14 14 13 13 14 15 13 14 15 14 16 16 19 19 20
-1 -1 -1 -1 -1 -0 3 1 -1 -0 4 5 14 11 13 8 10 12 9 11 10 10 10 12 13 17 18 17 18 14 11 11 12 12 13 10 12 17 14 18 20 19 18 18
-1 -1 -1 2 3 5 7 -0 -0 1 4 10 14 13 14 8 11 11 11 10 12 12 12 13 13 17 16 17 16 15 12 14 11 18 18 19 17 14 14 18 23 19 16 16
-1 4 11 14 9 1 1 3 6 6 6 12 17 14 13 10 11 12 16 16 16 15 15 15 14 19 20 19 16 11 14 12 16 17 14 21 16 15 14 13 14 15 15 15
8 14 13 8 2 6 9 9 10 8 10 13 17 14 14 10 13 14 13 13 13 15 16 18 19 20 18 14 13 10 14 12 11 14 11 14 11 11 12 12 14 17 16 16
7 7 6 8 12 14 14 13 11 11 13 13 15 14 12 12 11 12 13 14 15 16 18 20 19 18 15 16 12 10 14 17 15 19 15 17 18 18 15 15 15 16 15 18
10 13 15 15 15 17 18 17 15 13 13 13 12 12 12 13 12 13 14 15 17 21 19 21 20 18 19 17 13 16 25 25 27 25 27 27 27 28 26 22 21 19 18 19
16 19 20 19 18 17 16 15 14 13 13 12 12 13 13 15 16 14 18 23 23 22 25 22 19 17 15 22 25 22 23 26 28 27 29 28 29 27 29 27 26 25 22 21
17 16 21 23 19 17 15 15 15 11 12 10 12 13 13 20 16 19 24 21 24 23 21 19 17 22 23 24 25 26 26 27 26 30 29 27 29 29 28 28 28 29 27 25
17 18 17 22 19 15 15 19 14 14 10 11 10 14 14 16 17 17 21 21 19 18 20 21 24 24 26 26 28 28 30 30 31 31 32 31 29 29 29 29 29 28 31 29
18 18 23 20 20 16 18 21 15 12 15 17 13 14 16 17 17 18 18 20 18 21 23 27 27 26 26 29 29 30 31 30 31 32 31 31 30 33 28 27 28 29 29 32

GFSNW_con_lsi_279.txt.gz
Lid_Strength_Index
4 4 4 5 5 4 5 10 14 6 5 10 11 11 10 8 11 10 12 12 12 14 15 17 18 18 17 15 16 18 18 19 24 21 20 19 18 19 21 24 25 26 27 23
4 4 4 4 4 4 6 12 11 6 6 13 12 11 10 10 12 12 12 12 10 12 13 15 16 17 15 15 17 18 17 22 25 21 20 20 20 19 21 26 26 26 26 21
4 4 4 4 4 4 6 10 16 10 9 10 11 12 12 11 10 11 9 10 11 13 14 14 16 16 15 15 16 14 16 19 21 20 19 20 22 21 21 24 27 27 24 23
4 4 4 4 4 4 7 10 14 13 14 13 12 11 11 12 12 11 10 12 11 12 15 15 16 16 16 15 14 16 18 21 22 21 21 21 21 21 22 23 24 22 17 23
3 4 4 4 4 4 8 12 13 14 18 13 13 12 13 12 12 12 13 12 11 11 14 14 16 15 16 16 16 17 18 20 21 22 21 21 22 21 20 20 21 22 21 20
2 2 3 3 3 3 8 8 9 11 13 17 16 16 14 13 11 11 10 11 12 13 12 12 12 12 13 14 16 17 19 20 21 23 22 23 24 21 20 21 21 20 23 18
1 1 1 0 -0 -0 4 5 7 11 16 14 15 14 13 15 14 15 11 10 10 12 9 10 12 13 13 14 16 15 19 20 22 25 22 24 17 18 18 19 18 19 19 18
-2 -2 -2 -2 -2 -2 1 2 4 8 13 12 13 14 14 14 13 14 12 11 9 9 10 14 15 17 16 18 18 17 16 19 24 24 28 21 17 20 20 20 18 17 17 16
-2 -2 -2 -2 -2 -2 0 2 1 5 9 13 11 13 13 16 15 15 12 12 9 9 11 14 18 20 20 22 20 17 18 18 20 28 26 27 18 20 19 19 20 17 17 17
-2 -2 -2 -2 -2 -1 -0 2 0 4 8 7 8 12 14 12 12 14 13 12 11 10 13 15 18 19 21 21 22 22 22 22 23 29 28 24 17 18 18 20 16 18 17 17
-2 -2 -2 -2 -2 -2 -0 3 0 3 7 6 5 7 11 11 11 14 11 12 12 13 13 14 15 22 21 22 20 20 21 23 27 27 29 25 18 19 18 15 17 17 18 18
-2 -2 -2 -2 -2 -2 -2 3 0 -0 4 6 4 4 5 6 7 9 10 11 12 11 13 14 16 17 21 21 21 18 19 19 22 21 20 17 17 16 15 16 16 16 17 17
-2 -2 -2 -2 -2 -2 -1 2 2 2 5 6 5 7 4 3 5 5 12 11 10 11 12 14 14 18 18 22 21 19 18 17 19 20 16 16 16 15 15 15 15 15 16 16
-2 -2 -2 -2 -2 -2 -1 2 1 2 5 9 8 5 7 4 5 5 6 9 8 10 11 14 15 17 15 18 17 18 17 17 20 20 16 14 14 15 14 14 15 15 15 16
-2 -1 -2 -2 -1 -2 -1 1 1 0 4 9 10 10 7 3 5 7 6 7 9 10 11 12 14 15 15 20 20 22 18 17 17 16 13 12 12 13 13 14 14 14 15 16
-1 -1 -1 -1 -1 -1 2 5 1 -0 1 6 13 11 10 5 5 8 8 8 8 9 11 12 13 13 15 20 20 16 16 15 14 12 13 13 13 13 13 14 14 15 16 16
-1 -1 -1 -1 -1 1 7 9 4 -1 1 7 11 15 11 8 6 8 8 8 9 9 10 11 13 15 13 15 20 13 14 13 13 14 14 13 13 12 12 14 15 18 19 17
-1 -1 -1 -1 -1 1 3 2 -0 -0 3 5 11 16 14 5 8 10 8 9 9 9 9 11 13 15 16 17 18 14 12 12 13 13 13 10 13 16 14 17 20 20 17 16
-1 -1 -1 3 3 5 6 -0 -1 0 4 9 17 17 17 6 10 10 10 8 11 10 11 12 11 16 15 16 15 16 12 12 10 15 17 18 18 13 13 14 23 20 16 16
-1 5 10 15 11 1 1 4 6 6 6 7 13 18 16 8 9 11 11 11 12 14 13 13 13 16 20 18 14 11 10 11 14 16 14 20 17 14 13 14 14 14 13 14
9 15 14 9 2 7 7 12 9 9 11 12 15 10 13 9 12 12 11 13 14 17 18 17 18 19 17 14 14 10 12 11 12 11 12 16 16 15 13 12 16 17 18 17
8 8 8 11 13 15 16 14 12 11 17 13 14 13 11 11 11 10 12 14 13 20 21 20 19 17 15 13 10 8 13 12 13 20 20 22 22 23 22 22 22 23 22 22
10 14 16 15 17 17 16 17 15 14 12 12 13 12 11 13 11 12 14 16 16 21 17 21 19 18 18 16 18 20 26 25 25 25 28 29 29 30 30 27 27 27 27 25
16 19 20 20 20 17 13 13 13 11 14 14 11 14 13 11 13 13 16 24 21 18 23 20 18 20 22 24 26 23 24 28 27 28 30 30 31 30 30 31 30 30 28 27
18 18 22 22 17 18 16 14 14 11 11 10 14 14 14 15 17 19 21 20 23 20 19 20 20 22 26 25 27 27 27 29 29 31 30 31 32 32 29 30 31 32 30 29
18 16 19 23 21 17 18 17 14 11 11 10 9 12 13 15 17 17 16 20 20 20 24 22 24 24 26 28 29 29 31 31 31 32 32 31 31 32 32 31 30 29 32 28
20 19 26 17 22 17 21 19 14 12 12 14 13 14 18 18 20 15 16 23 24 25 24 27 28 29 28 29 29 29 30 30 32 32 31 32 32 32 29 27 28 29 27 27

GFSNW_con_lsi_285.txt.gz
Lid_Strength_Index
4 4 4 4 4 4 5 8 13 4 2 10 10 11 9 7 7 6 8 8 9 13 12 12 12 12 12 11 13 16 14 15 17 18 17 16 15 16 16 16 18 18 18 15
4 4 4 4 3 3 6 10 10 5 4 13 11 9 9 8 9 8 9 9 8 8 12 13 11 12 11 11 13 14 14 16 18 18 18 17 18 17 16 17 16 18 17 15
4 4 3 3 3 3 5 9 14 9 8 7 11 12 12 11 7 8 7 9 8 10 12 11 13 12 12 11 13 13 11 15 16 17 17 16 19 18 17 16 17 16 17 14
4 3 3 2 2 2 4 8 11 9 13 12 11 12 11 12 12 9 8 10 10 11 14 13 13 11 11 11 11 13 14 17 15 15 17 17 17 17 17 19 17 17 15 17
3 3 2 2 2 2 5 9 10 8 10 10 11 11 13 13 13 12 13 11 9 10 12 12 13 11 11 11 12 14 14 17 17 17 16 18 19 17 17 17 17 17 17 18
3 3 3 2 2 2 4 4 3 6 9 10 11 11 12 13 12 11 10 11 13 12 11 10 8 7 8 10 12 14 14 16 17 18 16 16 18 16 16 16 16 17 19 16
3 2 2 1 -0 -1 1 1 3 6 10 8 9 9 10 11 12 13 11 11 12 11 9 10 8 9 10 10 10 11 14 14 14 17 17 20 14 13 12 15 15 15 15 14
2 2 0 -1 -2 -2 1 0 3 5 10 7 8 7 9 9 9 11 11 10 10 9 11 14 12 13 13 12 12 12 11 13 17 17 18 15 14 14 16 16 15 13 14 14
2 1 -1 -2 -2 -2 0 1 0 4 8 9 6 7 7 9 9 10 10 8 7 9 12 14 15 16 14 16 16 13 13 13 15 18 18 20 14 15 15 14 17 12 12 13
-0 -1 -2 -2 -2 -2 -0 1 -0 3 7 5 5 8 8 6 7 9 9 9 9 8 13 15 15 15 12 16 17 18 16 15 17 17 17 15 12 15 15 17 14 15 13 13
-1 -2 -2 -2 -2 -2 -0 1 -1 3 5 5 4 4 6 6 6 9 7 10 9 10 13 13 13 14 13 14 13 16 16 16 17 15 17 19 14 16 15 13 14 14 14 13
-2 -2 -2 -2 -1 -2 -1 2 -0 -0 4 4 2 2 1 2 3 5 6 8 8 8 11 13 14 13 13 13 16 13 15 12 14 13 14 12 13 13 13 13 13 13 13 13
-2 -2 -2 -2 -2 -2 -1 1 0 2 4 5 4 5 2 0 1 1 7 5 6 8 7 11 13 15 12 14 13 13 13 11 13 14 11 12 12 12 12 13 13 12 12 12
-2 -2 -2 -2 -2 -1 -1 1 0 2 4 8 6 1 3 0 1 1 2 3 4 6 7 10 12 14 11 13 13 12 11 13 13 14 12 11 10 11 11 11 12 13 12 13
-2 -2 -2 -2 -1 -1 -1 -0 -0 -0 4 8 7 3 2 1 1 2 2 3 5 7 9 11 13 11 11 11 13 14 12 13 13 13 9 8 9 9 10 11 12 12 12 12
-1 -1 -1 -1 -1 -1 1 4 0 -0 1 6 10 3 4 3 3 3 4 4 5 5 8 10 10 9 11 14 15 9 11 10 9 8 8 8 8 9 10 10 10 11 12 11
-1 -1 -1 -1 -1 0 3 4 1 -1 0 6 9 8 5 3 4 4 4 4 5 6 7 10 10 10 10 12 16 12 11 10 9 9 10 10 11 9 9 11 11 13 13 13
-1 -1 -1 -1 -1 -0 2 0 -1 -1 3 4 9 9 7 4 7 7 4 6 6 6 7 8 10 9 10 14 11 10 10 10 10 10 10 8 11 12 12 13 15 15 14 13
-1 -1 -1 0 1 4 2 -1 -1 1 3 8 8 10 11 4 6 6 6 6 9 6 9 9 9 11 13 11 11 10 9 10 10 10 10 13 13 12 12 13 16 15 13 14
-1 1 3 6 4 1 0 2 5 5 5 6 9 6 9 6 7 8 8 7 9 11 9 7 11 12 10 9 9 8 9 9 10 12 12 15 13 12 11 13 13 13 14 15
3 5 6 4 2 3 5 8 8 8 9 7 7 8 9 5 9 9 7 9 8 12 10 11 12 12 10 8 8 8 8 8 8 9 11 11 11 12 14 14 15 17 19 20
3 3 4 3 5 7 10 11 9 10 11 9 9 9 8 7 5 8 8 10 9 13 9 11 13 10 9 11 9 8 11 12 13 14 13 16 15 19 20 21 22 23 24 24
3 5 8 8 9 12 13 14 11 12 9 8 8 10 8 7 6 8 8 11 13 11 14 13 11 12 15 18 18 16 18 17 15 18 19 20 21 24 24 24 26 25 24 24
7 10 15 12 13 11 10 10 10 8 8 8 9 10 9 7 9 8 12 11 14 16 15 14 12 18 20 20 20 21 20 21 20 21 22 23 24 24 26 26 26 26 25 24
9 11 14 14 11 11 10 10 11 9 8 9 10 11 8 9 10 10 12 16 18 14 13 13 17 20 21 21 22 22 22 23 23 22 23 24 25 24 25 25 24 24 24 23
11 12 13 14 14 12 11 11 11 9 9 8 9 9 11 11 11 15 16 16 16 15 17 17 18 20 22 23 23 24 24 23 23 24 23 24 25 24 24 24 23 23 24 24
13 12 15 13 13 12 10 10 10 9 11 11 11 12 12 12 14 15 13 15 17 18 18 19 21 23 23 25 24 25 24 24 23 24 24 24 24 24 23 24 23 23 24 24

GFSNW_con_lsi_291.txt.gz
Lid_Strength_Index
4 4 4 4 4 4 7 12 21 10 8 18 16 15 14 10 11 9 10 9 11 12 12 15 13 13 11 10 11 15 12 14 17 18 15 15 16 17 17 19 20 22 22 20
4 4 4 4 4 4 8 17 16 10 9 24 25 18 14 13 14 14 12 12 9 9 12 14 13 11 9 10 12 14 13 17 20 17 17 17 19 18 17 17 19 22 24 21
4 4 4 4 4 4 6 13 18 17 13 15 17 20 19 17 13 13 13 13 11 14 13 11 13 13 10 10 11 10 10 15 17 18 17 18 20 18 17 18 24 22 20 22
3 3 3 3 3 3 7 11 16 17 23 21 17 16 16 17 20 13 12 15 14 15 15 15 15 13 12 10 10 11 11 16 16 16 15 16 17 18 18 19 19 21 21 19
3 3 3 3 3 3 8 13 14 14 21 16 16 16 20 16 16 14 15 15 14 11 15 14 16 15 14 13 13 13 12 15 15 19 15 14 15 16 18 18 18 18 20 20
3 3 3 3 3 4 8 8 8 10 14 15 16 16 15 14 12 11 10 11 13 11 11 10 10 11 12 13 15 13 14 15 18 22 15 15 18 17 16 17 20 19 21 17
3 3 3 3 3 3 7 6 7 11 15 12 12 11 10 10 9 11 9 8 10 8 7 8 9 11 12 13 13 12 14 15 15 19 18 22 15 14 14 15 15 16 19 18
3 3 3 3 2 2 5 5 6 7 11 9 9 9 9 8 8 9 9 8 6 5 8 12 17 16 13 12 11 11 11 13 16 19 20 16 14 14 16 17 16 14 16 15
3 3 2 2 2 1 3 3 1 4 8 9 7 9 9 12 14 13 9 6 5 6 8 12 18 21 16 17 15 11 11 12 15 18 19 22 15 15 15 14 18 14 13 14
2 2 2 2 1 -0 -0 1 1 3 7 6 6 10 11 7 10 15 14 10 10 6 11 13 16 20 16 18 18 18 14 14 16 20 20 19 13 15 15 19 16 16 15 14
2 2 1 1 -1 -2 -0 2 1 3 6 6 5 6 9 10 10 13 12 11 12 13 15 13 14 16 16 16 13 15 16 17 19 18 19 21 13 14 15 13 16 15 14 14
2 1 1 -1 -2 -2 -1 3 0 0 4 7 3 4 3 5 5 9 12 10 13 11 14 12 13 15 15 16 20 12 15 14 17 14 15 12 13 13 12 13 14 15 14 13
-0 -0 -2 -2 -2 -2 -1 1 2 3 5 6 6 7 5 2 3 3 12 12 7 8 8 11 11 14 13 22 16 14 13 12 15 13 12 12 11 12 12 12 13 13 13 13
-1 -1 -1 -1 -1 -2 -1 2 1 2 5 10 9 5 7 3 2 3 4 6 6 8 9 13 14 15 10 14 13 14 13 13 14 16 12 12 11 11 10 11 12 13 13 13
-1 -1 -1 -1 -1 -1 0 2 1 0 5 10 11 8 6 3 4 4 4 5 7 12 13 12 15 10 11 13 14 16 12 14 15 14 12 13 12 11 10 11 12 12 12 13
-1 -1 -1 -1 -1 -1 2 7 2 0 3 6 11 8 11 9 6 5 5 5 7 7 8 11 11 8 10 15 18 13 11 11 11 12 11 11 11 11 11 11 11 12 12 12
-1 -1 -1 -1 -1 3 7 8 3 -1 1 7 13 15 10 11 11 12 11 11 7 6 7 9 10 11 9 18 16 13 12 11 11 11 12 13 13 12 12 11 12 14 15 15
-1 -1 -1 -1 -1 0 3 2 -0 1 7 10 17 16 14 11 9 10 11 9 7 8 10 15 12 13 11 14 13 13 11 11 11 11 11 12 11 12 13 16 16 15 15 16
-1 -1 -1 4 5 7 4 -0 -0 1 7 14 15 17 18 9 12 11 12 10 12 13 10 11 9 10 13 14 13 14 12 12 12 11 15 16 16 12 14 16 18 16 15 18
-1 3 9 13 8 1 1 6 8 7 10 10 16 15 13 9 12 11 10 9 10 12 11 11 10 11 9 9 13 12 11 12 15 15 13 13 18 17 15 14 15 16 19 21
9 14 16 8 1 6 15 18 18 19 19 19 11 12 13 7 12 11 8 13 17 14 15 14 19 20 10 8 10 10 11 12 12 12 11 12 12 12 18 21 25 24 25 26
9 9 9 11 13 17 20 24 20 21 19 17 16 14 12 13 9 10 10 13 17 20 20 19 23 12 17 20 21 20 22 23 21 15 13 20 24 25 23 25 28 28 28 29
11 15 19 17 18 21 23 26 22 21 20 19 17 16 14 15 11 10 10 14 17 20 22 20 15 17 19 22 25 23 24 25 22 23 24 24 27 28 28 28 31 31 28 29
17 20 21 22 25 24 23 22 21 17 18 18 17 18 15 13 12 11 14 15 16 22 23 20 19 19 20 22 24 27 25 24 24 26 27 26 26 27 28 28 30 26 27 28
17 20 22 25 22 24 20 21 19 17 16 15 15 13 11 13 13 15 17 18 19 18 17 17 17 21 24 24 25 26 26 26 30 29 28 27 27 26 27 28 28 28 27 28
16 20 21 27 24 22 22 22 20 16 15 13 11 14 16 16 16 18 18 19 18 18 18 17 19 21 23 26 27 27 27 29 29 28 28 27 27 26 27 27 27 28 28 28
21 19 27 24 25 18 20 21 17 11 15 15 14 15 14 12 14 16 18 20 20 20 19 18 20 23 24 25 28 27 27 27 26 24 25 26 29 28 27 28 28 27 27 28